map of SOZ home
Great Circle Mapper logo
SOZ - Airport
Location
City:  Solenzara, France
ICAO / IATA:LFKS / SOZ

Details
Type:Airport (Aerodrome, Airfield)
Use:Military
Latitude:4155'35"N (41.926389)
Longitude:924'19"E (9.405278)
Elevation:28 ft (9 m)
Runways:1
Longest:8619 × 148 ft (2627 × 45 m)

Time
Time Zone:UTC+1 (DST+2)
Local Time:

Weather
METAR:LFKS 241600Z AUTO VRB03KT 9999 NSC 22/13 Q1013
TAF:LFKS 241400Z 2415/2515 14004KT 9999 FEW040
BECMG 2417/2418 27006KT
BECMG 2511/2513 SCT040TCU

Related Locations
Nearby:
Farthest:CHT: 12114 mi / 19496 km
Waitangi [Tuuta], Chatham Islands, NZ

Find:

   beyond  
but within

Other Information
Maps:
NOTAMs:
Links:
Sources:

  
flag of France   

Sectional Chart

Flight Planning
at skyvector.com

Satellite Image

Google Maps Satellite View

 

Copyright © 2004-2014 Karl L. Swartz. All rights reserved.
The Great Circle Mapper name and logo are trademarks of the Great Circle Mapper.
All other trademarks mentioned herein belong to their respective owners.
Please see credits for attibutions and further copyright information.

  Follow gcmap on Facebook Follow gcmap on Twitter

hCard Microformat

Geo Microformat